Location: Asheville, NC
(35.6000°N, 82.5500°W)
Time: 12:02:20

CUTE-I - Pass Details

Date: 11 March 2018
Orbit: 812 x 824 km, 98.7° (Epoch: 23 March)

Event Time Altitude Azimuth Distance (km) Brightness Sun altitude
Rises 07:10:26 0° 23° (NNE) 3,363 ? -8.2°
Reaches altitude 10° 07:13:01 10° 33° (NNE) 2,426 ? -7.6°
Maximum altitude 07:17:52 34° 98° (E) 1,323 ? -6.7°
Drops below altitude 10° 07:22:41 10° 162° (SSE) 2,408 ? -5.7°
Sets 07:25:13 0° 171° (S) 3,335 ? -5.2°
